Weather History for KGSO - May, 2014

Change the Weather History Date:

Wednesday, May 7, 2014

  Actual Average Record
Temperature  
Mean Temperature 69 °F 64 °F  
Max Temperature 79 °F 75 °F 93 °F (1940)
Min Temperature 59 °F 53 °F 36 °F (1970)
Degree Days  
Heating Degree Days 0 3  
Month to date heating degree days 8 25  
Since 1 July heating degree days 3795 3571  
Cooling Degree Days 4 2  
Month to date cooling degree days 16 14  
Year to date cooling degree days 36 52  
Growing Degree Days 19 (Base 50)    
Moisture  
Dew Point 59 °F    
Average Humidity 72    
Maximum Humidity 90    
Minimum Humidity 54    
Precipitation  
Precipitation 0.00 in 0.10 in 2.21 in (1998)
Month to date precipitation 0.00 0.72  
Year to date precipitation 14.88 14.04  
Sea Level Pressure  
Sea Level Pressure 30.08 in    
Wind  
Wind Speed 6 mph (ENE)    
Max Wind Speed 12 mph    
Max Gust Speed 13 mph    
Visibility 9 miles    
Events      
T = Trace of Precipitation, MM = Missing Value Source: NWS Daily Summary

Daily Weather History Graph

Daily Weather History Graph

Search for Another Location

Airport or City:

Trip Planner

Search our weather history database for the weather conditions in past years. The results will help you decide how hot, cold, wet, or windy it might be!

Date:

Astronomy

May. 07, 2014 Rise Set
Actual Time 6:20 AM EDT 8:12 PM EDT
Civil Twilight 5:52 AM EDT 8:40 PM EDT
Nautical Twilight 5:19 AM EDT 9:14 PM EDT
Astronomical Twilight 4:43 AM EDT 9:50 PM EDT
Moon 1:28 PM EDT (5/7) 2:05 AM EDT (5/7)
Length of Visible Light 14h 47m
Length of Day
13h 51m
First Quarter, 55% of the Moon is Illuminated
May 7
First Quarter
May 14
Full
May 21
Last Quarter
May 28
New
Jun 5
First Quarter

Hourly Weather History & Observations

Time (EDT) Temp. Dew Point Humidity Pressure Visibility Wind Dir Wind Speed Gust Speed Precip Events Conditions
12:54 AM 64.9 °F 59.0 °F 81% 29.99 in 10.0 mi NE 5.8 mph - N/A   Scattered Clouds
1:54 AM 63.0 °F 59.0 °F 87% 29.99 in 10.0 mi NE 6.9 mph - N/A   Clear
2:54 AM 62.1 °F 57.9 °F 86% 29.99 in 10.0 mi NE 6.9 mph - N/A   Clear
3:54 AM 60.1 °F 57.0 °F 90% 30.00 in 9.0 mi NE 6.9 mph - N/A   Scattered Clouds
4:19 AM 59.0 °F 57.2 °F 94% 30.04 in 8.0 mi NE 5.8 mph - N/A   Mostly Cloudy
4:54 AM 61.0 °F 57.9 °F 90% 30.01 in 9.0 mi NE 6.9 mph - N/A   Overcast
5:09 AM 60.8 °F 57.2 °F 88% 30.04 in 9.0 mi NE 8.1 mph - N/A   Overcast
5:54 AM 61.0 °F 57.9 °F 90% 30.03 in 8.0 mi NNE 8.1 mph - N/A   Overcast
6:54 AM 61.0 °F 57.9 °F 90% 30.06 in 5.0 mi NE 8.1 mph - N/A   Overcast
7:54 AM 62.1 °F 59.0 °F 90% 30.08 in 5.0 mi ENE 8.1 mph - N/A   Overcast
8:54 AM 62.1 °F 57.9 °F 86% 30.11 in 7.0 mi NE 9.2 mph - N/A   Overcast
9:54 AM 63.0 °F 57.9 °F 84% 30.12 in 7.0 mi ENE 6.9 mph - N/A   Overcast
10:54 AM 64.0 °F 57.0 °F 78% 30.14 in 9.0 mi NE 5.8 mph - N/A   Overcast
11:08 AM 64.4 °F 57.2 °F 77% 30.16 in 9.0 mi ENE 3.5 mph - N/A   Overcast
11:54 AM 66.9 °F 57.9 °F 73% 30.13 in 9.0 mi NE 5.8 mph - N/A   Overcast
12:10 PM 68.0 °F 57.2 °F 68% 30.15 in 10.0 mi Calm Calm - N/A   Mostly Cloudy
12:45 PM 69.8 °F 57.2 °F 64% 30.14 in 10.0 mi NE 3.5 mph - N/A   Mostly Cloudy
12:54 PM 69.8 °F 59.0 °F 68% 30.14 in 10.0 mi Variable 3.5 mph - N/A   Mostly Cloudy
1:54 PM 73.0 °F 59.0 °F 61% 30.12 in 10.0 mi Variable 3.5 mph - N/A   Mostly Cloudy
2:54 PM 75.9 °F 60.1 °F 58% 30.11 in 10.0 mi Calm Calm - N/A   Mostly Cloudy
3:54 PM 77.0 °F 59.0 °F 54% 30.09 in 10.0 mi Calm Calm - N/A   Mostly Cloudy
4:54 PM 78.1 °F 60.1 °F 54% 30.07 in 9.0 mi SSE 8.1 mph - N/A   Mostly Cloudy
5:54 PM 77.0 °F 62.1 °F 60% 30.07 in 10.0 mi SE 6.9 mph - N/A   Mostly Cloudy
6:54 PM 75.9 °F 62.1 °F 62% 30.08 in 10.0 mi SSE 9.2 mph - N/A   Mostly Cloudy
7:54 PM 73.0 °F 62.1 °F 68% 30.08 in 10.0 mi SE 5.8 mph - N/A   Mostly Cloudy
8:54 PM 69.1 °F 61.0 °F 75% 30.09 in 10.0 mi East 3.5 mph - N/A   Clear
9:54 PM 68.0 °F 61.0 °F 78% 30.10 in 10.0 mi East 4.6 mph - N/A   Clear
10:54 PM 66.0 °F 61.0 °F 84% 30.11 in 7.0 mi SSE 4.6 mph - N/A   Partly Cloudy
11:54 PM 64.9 °F 60.1 °F 84% 30.10 in 9.0 mi Calm Calm - N/A   Partly Cloudy